Weather History for La Porte, IN

Change the Weather History Date:

Friday, April 11, 2014

  Actual Average (KVPZ) Record (KVPZ)
Temperature  
Mean Temperature 49 °F 48 °F  
Max Temperature 67 °F 58 °F 78 °F (2001)
Min Temperature 31 °F 37 °F 28 °F (2009)
Degree Days  
Heating Degree Days 16 18  
Month to date heating degree days 214  
Since 1 July heating degree days 5791  
Cooling Degree Days 0 0  
Month to date cooling degree days 0  
Year to date cooling degree days 0  
Moisture  
Dew Point 28 °F    
Average Humidity 53    
Maximum Humidity 100    
Minimum Humidity 16    
Precipitation  
Precipitation 0.00 in 0.11 in 0.95 in (2013)
Month to date precipitation 1.16  
Year to date precipitation 6.81  
Sea Level Pressure  
Sea Level Pressure 30.00 in    
Wind  
Wind Speed 2 mph (West)    
Max Wind Speed 12 mph    
Max Gust Speed 16 mph    
Visibility 9 miles    
Events      
T = Trace of Precipitation, MM = Missing Value Source: NWS Daily Summary

Daily Weather History Graph

Daily Weather History Graph

Search for Another Location

Airport:

Trip Planner

Search our weather history database for the weather conditions in past years. The results will help you decide how hot, cold, wet, or windy it might be!

Date:

Astronomy

Apr. 11, 2014 Rise Set
Actual Time 6:13 AM CDT 7:23 PM CDT
Civil Twilight 5:44 AM CDT 7:51 PM CDT
Nautical Twilight 5:10 AM CDT 8:25 PM CDT
Astronomical Twilight 4:35 AM CDT 9:01 PM CDT
Moon 4:00 PM CDT (4/11) 4:11 AM CDT (4/11)
Length of Visible Light 14h 06m
Length of Day
13h 09m
Waxing Gibbous, 87% of the Moon is Illuminated
Apr 11
Waxing Gibbous
Apr 15
Full
Apr 22
Last Quarter
Apr 29
New
May 6
First Quarter

Hourly Weather History & Observations

Time (CDT) Temp. Windchill Dew Point Humidity Pressure Visibility Wind Dir Wind Speed Gust Speed Precip Events Conditions
12:15 AM 38.8 °F - 36.9 °F 93% 29.94 in 7.0 mi Calm Calm - N/A   Mostly Cloudy
12:35 AM 36.3 °F - 34.5 °F 93% 29.95 in 7.0 mi Calm Calm - N/A   Scattered Clouds
12:55 AM 34.9 °F - 33.1 °F 93% 29.96 in 7.0 mi Calm Calm - N/A   Scattered Clouds
1:15 AM 35.2 °F - 34.0 °F 95% 29.96 in 4.0 mi Calm Calm - N/A   Scattered Clouds
1:35 AM 34.9 °F - 34.5 °F 99% 29.96 in 5.0 mi Calm Calm - N/A   Clear
1:55 AM 35.4 °F - 35.4 °F 100% 29.95 in 7.0 mi Calm Calm - N/A   Scattered Clouds
2:15 AM 35.4 °F - 35.4 °F 100% 29.96 in 5.0 mi Calm Calm - N/A   Scattered Clouds
2:35 AM 34.3 °F - 34.3 °F 100% 29.96 in 5.0 mi Calm Calm - N/A   Scattered Clouds
2:55 AM 34.3 °F - 34.3 °F 100% 29.96 in 4.0 mi Calm Calm - N/A   Scattered Clouds
3:15 AM 34.0 °F - 34.0 °F 100% 29.96 in 3.0 mi Calm Calm - N/A   Clear
3:35 AM 35.1 °F 32.2 °F 35.1 °F 100% 29.97 in 5.0 mi NNW 3.5 mph - N/A   Clear
3:55 AM 37.4 °F 30.8 °F 37.4 °F 100% 29.98 in 10.0 mi North 9.2 mph - N/A   Scattered Clouds
4:15 AM 39.2 °F 35.9 °F 38.8 °F 99% 29.97 in 10.0 mi NNE 4.6 mph - N/A   Scattered Clouds
4:35 AM 36.7 °F 34.1 °F 32.9 °F 86% 29.97 in 10.0 mi North 3.5 mph - N/A   Clear
4:55 AM 36.7 °F - 33.4 °F 88% 29.98 in 10.0 mi Calm Calm - N/A   Clear
5:15 AM 33.4 °F - 31.6 °F 93% 29.99 in 7.0 mi Calm Calm - N/A   Clear
5:35 AM 34.9 °F - 32.0 °F 89% 29.99 in 10.0 mi Calm Calm - N/A   Clear
5:55 AM 32.9 °F - 31.1 °F 93% 30.00 in 7.0 mi Calm Calm - N/A   Clear
6:15 AM 31.3 °F - 29.5 °F 93% 30.00 in 7.0 mi Calm Calm - N/A   Clear
6:35 AM 31.3 °F - 29.8 °F 94% 30.01 in 5.0 mi Calm Calm - N/A   Clear
6:55 AM 32.2 °F - 31.3 °F 96% 30.01 in 7.0 mi Calm Calm - N/A   Clear
7:15 AM 34.0 °F - 32.7 °F 95% 30.01 in 5.0 mi Calm Calm - N/A   Clear
7:55 AM 41.0 °F - 40.6 °F 99% 30.02 in 7.0 mi Calm Calm - N/A   Clear
8:15 AM 46.6 °F - 36.7 °F 68% 30.03 in 10.0 mi Calm Calm - N/A   Clear
8:35 AM 49.6 °F - 32.0 °F 51% 30.02 in 10.0 mi ENE 4.6 mph - N/A   Clear
8:55 AM 52.9 °F - 30.0 °F 42% 30.03 in 10.0 mi Calm Calm - N/A   Clear
9:15 AM 54.7 °F - 26.6 °F 34% 30.04 in 10.0 mi ENE 4.6 mph - N/A   Clear
9:35 AM 56.5 °F - 25.7 °F 31% 30.04 in 10.0 mi East 3.5 mph - N/A   Clear
9:55 AM 57.9 °F - 22.8 °F 26% 30.05 in 10.0 mi Calm Calm - N/A   Clear
10:15 AM 58.3 °F - 19.9 °F 23% 30.04 in 10.0 mi Calm Calm - N/A   Clear
10:35 AM 59.2 °F - 22.5 °F 24% 30.04 in 10.0 mi NE 4.6 mph - N/A   Clear
10:55 AM 59.9 °F - 21.2 °F 22% 30.04 in 10.0 mi Calm Calm - N/A   Clear
11:15 AM 60.3 °F - 21.9 °F 23% 30.04 in 10.0 mi SSE 3.5 mph - N/A   Clear
11:35 AM 60.3 °F - 19.0 °F 20% 30.04 in 10.0 mi Calm Calm - N/A   Clear
11:55 AM 60.8 °F - 19.4 °F 20% 30.03 in 10.0 mi Calm Calm - N/A   Clear
12:15 PM 62.1 °F - 21.0 °F 21% 30.03 in 10.0 mi Calm Calm - N/A   Clear
12:35 PM 63.3 °F - 22.8 °F 21% 30.03 in 10.0 mi SW 8.1 mph - N/A   Clear
12:55 PM 63.0 °F - 23.4 °F 22% 30.02 in 10.0 mi SW 5.8 mph - N/A   Clear
1:15 PM 63.7 °F - 23.9 °F 22% 30.02 in 10.0 mi SSW 8.1 mph - N/A   Clear
1:35 PM 63.5 °F - 21.7 °F 20% 30.02 in 10.0 mi Calm Calm - N/A   Clear
1:55 PM 65.1 °F - 22.6 °F 20% 30.01 in 10.0 mi Calm Calm - N/A   Clear
2:15 PM 65.7 °F - 23.5 °F 20% 30.01 in 10.0 mi West 11.5 mph - N/A   Clear
2:55 PM 65.8 °F - 22.5 °F 19% 29.99 in 10.0 mi SW 4.6 mph - N/A   Clear
3:15 PM 66.6 °F - 21.4 °F 18% 29.99 in 10.0 mi Calm Calm - N/A   Clear
3:35 PM 67.1 °F - 23.0 °F 19% 29.99 in 10.0 mi WSW 6.9 mph - N/A   Clear
3:55 PM 67.3 °F - 21.4 °F 17% 29.98 in 10.0 mi West 8.1 mph - N/A   Clear
4:15 PM 67.1 °F - 21.2 °F 17% 29.99 in 10.0 mi West 5.8 mph 16.1 mph N/A   Clear
4:35 PM 67.1 °F - 21.6 °F 18% 29.99 in 10.0 mi WNW 5.8 mph - N/A   Scattered Clouds
4:55 PM 66.4 °F - 18.9 °F 16% 29.99 in 10.0 mi North 8.1 mph - N/A   Clear
5:15 PM 66.2 °F - 20.1 °F 17% 29.99 in 10.0 mi NNW 8.1 mph - N/A   Clear
5:35 PM 66.2 °F - 19.9 °F 17% 29.99 in 10.0 mi WNW 3.5 mph - N/A   Scattered Clouds
5:55 PM 65.3 °F - 20.3 °F 18% 30.00 in 10.0 mi NNW 4.6 mph - N/A   Scattered Clouds
6:15 PM 63.1 °F - 21.9 °F 21% 30.00 in 10.0 mi NW 3.5 mph - N/A   Scattered Clouds
6:35 PM 63.5 °F - 23.9 °F 22% 30.01 in 10.0 mi NW 3.5 mph - N/A   Mostly Cloudy
6:55 PM 61.9 °F - 26.1 °F 26% 30.00 in 10.0 mi Calm Calm - N/A   Scattered Clouds
7:15 PM 57.7 °F - 31.8 °F 37% 30.00 in 10.0 mi Calm Calm - N/A   Scattered Clouds
7:35 PM 54.7 °F - 30.4 °F 40% 30.00 in 10.0 mi Calm Calm - N/A   Clear
7:55 PM 50.2 °F - 32.4 °F 50% 30.00 in 10.0 mi Calm Calm - N/A   Clear
8:15 PM 51.4 °F - 30.2 °F 44% 30.00 in 10.0 mi SSE 3.5 mph - N/A   Clear
8:35 PM 48.0 °F - 33.4 °F 57% 30.01 in 10.0 mi Calm Calm - N/A   Clear
8:55 PM 48.4 °F - 32.4 °F 54% 30.02 in 10.0 mi Calm Calm - N/A   Scattered Clouds
9:15 PM 46.0 °F - 33.4 °F 61% 30.02 in 10.0 mi Calm Calm - N/A   Clear
9:35 PM 49.1 °F - 30.6 °F 49% 30.02 in 10.0 mi Calm Calm - N/A   Clear
9:55 PM 49.1 °F - 29.5 °F 47% 30.02 in 10.0 mi Calm Calm - N/A   Clear
10:15 PM 48.9 °F - 29.7 °F 47% 30.02 in 10.0 mi South 3.5 mph - N/A   Clear
10:35 PM 48.9 °F - 30.7 °F 50% 30.01 in 10.0 mi SSW 4.6 mph - N/A   Scattered Clouds
10:55 PM 47.5 °F - 31.1 °F 53% 30.02 in 10.0 mi SSW 3.5 mph - N/A   Scattered Clouds
11:15 PM 48.0 °F - 30.7 °F 51% 30.02 in 10.0 mi SSW 3.5 mph - N/A   Scattered Clouds
11:35 PM 49.1 °F - 30.6 °F 49% 30.02 in 10.0 mi SSW 3.5 mph - N/A   Scattered Clouds
11:55 PM 49.3 °F - 31.3 °F 50% 30.03 in 10.0 mi Calm Calm - N/A   Clear